Location: Bridgewater
(44.3670°N, 64.5170°W)
Time: 15:34:40
(UTC-03:00)

Amateur Radio Satellites - All Passes

Search period start: 24 July 2016 15:04
Search period end: 25 July 2016 15:04
Location: Bridgewater, 44.3670°N, 64.5170°W

Satellite Date Start Highest point End Downlink Frequencies (MHz)
Time Altitude Azimuth
SWISSCUBE 24 Jul 15:06:32 15:10:49 32° 97° (E) 15:15:04 437.505
AO-85 24 Jul 15:09:16 15:14:31 55° 119° (ESE) 15:19:33 145.980
Cosmos 2499 24 Jul 15:22:21 15:29:02 25° 80° (E) 15:35:36 435.465 / 435.565
BEESAT 24 Jul 15:28:05 15:32:42 47° 99° (E) 15:37:17 436.000
ITAMSAT 1 24 Jul 15:29:49 15:35:03 75° 257° (WSW) 15:40:19 435.822/435.867
DANDE 24 Jul 15:35:46 15:37:04 13° 70° (ENE) 15:38:24 436.750
CUSAT 1 24 Jul 15:41:51 15:44:37 82° 79° (E) 15:47:54 437.405
ITUPSAT 1 24 Jul 15:48:57 15:53:45 75° 103° (ESE) 15:58:29 437.325
AO-7 24 Jul 16:06:07 16:14:30 83° 252° (WSW) 16:22:57 29.400- 29.500
GONETS M04 24 Jul 16:18:53 16:27:28 70° 93° (E) 16:36:08
SO-50 24 Jul 16:25:57 16:28:51 16° 33° (NNE) 16:31:41 436.795
KKS-1 24 Jul 16:26:20 16:29:56 23° 94° (E) 16:33:30 437.445
MOZHAYETS 4 24 Jul 16:37:21 16:41:30 32° 96° (E) 16:45:36
SWISSCUBE 24 Jul 16:44:25 16:48:32 30° 294° (WNW) 16:52:38 437.505
HORYU 2 24 Jul 16:49:38 16:53:51 41° 69° (ENE) 16:58:05 437.375
AO-85 24 Jul 16:50:41 16:55:17 29° 317° (NW) 16:59:40 145.980
NOAA 18 24 Jul 16:58:22 17:00:53 13° 54° (NE) 17:03:25 137.9125
BEESAT 24 Jul 17:06:35 17:10:10 21° 297° (WNW) 17:13:44 436.000
RS-15 24 Jul 17:10:27 17:22:52 84° 239° (WSW) 17:35:06 29.354- 29.394
Cosmos 2499 24 Jul 17:12:20 17:21:15 79° 279° (W) 17:30:01 435.465 / 435.565
STARS 24 Jul 17:13:19 17:17:25 35° 97° (E) 17:21:29 437.465
NOAA 15 24 Jul 17:17:31 17:21:27 22° 62° (ENE) 17:25:25 137.62
DANDE 24 Jul 17:18:19 17:19:45 14° 268° (W) 17:21:13 436.750
ITUPSAT 1 24 Jul 17:28:23 17:30:58 15° 301° (WNW) 17:33:33 437.325
BRITE-PL 24 Jul 17:41:22 17:45:01 30° 69° (ENE) 17:48:39 437.365/2234.400
CUBESAT XI-V 24 Jul 17:48:30 17:52:09 23° 93° (E) 17:55:48 437.345
Cubesat XI-IV 24 Jul 18:00:56 18:05:52 38° 67° (ENE) 18:10:50 437.490
KKS-1 24 Jul 18:02:27 18:06:35 37° 291° (WNW) 18:10:43 437.445
AO-7 24 Jul 18:03:16 18:08:27 18° 271° (W) 18:13:42 29.400- 29.500
SO-50 24 Jul 18:05:27 18:10:08 77° 54° (NE) 18:14:39 436.795
MOZHAYETS 4 24 Jul 18:14:41 18:18:33 28° 294° (WNW) 18:22:24
GONETS M04 24 Jul 18:17:56 18:25:05 28° 295° (WNW) 18:32:21
CUTE-I 24 Jul 18:25:11 18:30:28 62° 72° (ENE) 18:35:48 437.470
HORYU 2 24 Jul 18:27:10 18:30:34 21° 267° (W) 18:33:59 437.375
LilacSat-2 24 Jul 18:29:40 18:33:28 59° 74° (ENE) 18:37:19 437.200
NOAA 18 24 Jul 18:35:07 18:40:38 78° 73° (ENE) 18:46:13 137.9125
STARS 24 Jul 18:50:01 18:53:37 25° 294° (WNW) 18:57:12 437.465
NOAA 15 24 Jul 18:55:43 19:00:51 55° 259° (W) 19:06:01 137.62
GOMX 1 24 Jul 18:58:40 19:02:49 90° 14° (NNE) 19:07:08 467.674
HO-68 24 Jul 18:58:57 19:04:47 28° 57° (ENE) 19:10:37 435.675
BEESAT 3 24 Jul 19:04:25 19:06:52 16° 111° (ESE) 19:09:19 437.485
DOVE 4 24 Jul 19:06:59 19:11:05 49° 72° (ENE) 19:15:24 437.250
Cosmos 2499 24 Jul 19:09:55 19:15:50 19° 301° (WNW) 19:21:41 435.465 / 435.565
BRITE-PL 24 Jul 19:20:14 19:23:34 23° 266° (W) 19:26:55 437.365/2234.400
RS-15 24 Jul 19:24:44 19:33:30 24° 261° (W) 19:42:12 29.354- 29.394
CUBESAT XI-V 24 Jul 19:25:24 19:29:39 39° 290° (WNW) 19:33:56 437.345
CUBEBUG 2 24 Jul 19:34:54 19:36:01 11° 57° (ENE) 19:37:07 437.445
SEEDS 24 Jul 19:37:22 19:40:19 19° 65° (ENE) 19:43:16 437.485
CINEMA 3 24 Jul 19:40:40 19:44:43 34° 68° (ENE) 19:48:58 145.822/145.860
Cubesat XI-IV 24 Jul 19:41:17 19:46:00 31° 265° (W) 19:50:44 437.490
STRAND 1 24 Jul 19:41:37 19:45:32 22° 93° (E) 19:49:25 437.568
PHONESAT 2.4 24 Jul 19:42:04 19:44:42 26° 164° (SSE) 19:47:21 2401.200-2431.200
SO-50 24 Jul 19:47:46 19:49:56 13° 252° (WSW) 19:52:04 436.795
COMPASS 1 24 Jul 19:54:42 19:57:45 20° 65° (ENE) 20:00:47 437.405
PCSat 24 Jul 20:03:02 20:07:48 32° 110° (ESE) 20:12:35 145.827
LilacSat-2 24 Jul 20:06:58 20:08:09 11° 271° (W) 20:09:20 437.200
CUTE-I 24 Jul 20:07:14 20:10:56 19° 269° (W) 20:14:40 437.470
CANX-2 24 Jul 20:12:40 20:16:55 68° 75° (ENE) 20:21:11 2200.000
Oscar 11 24 Jul 20:13:47 20:15:16 12° 60° (ENE) 20:16:46 145.826/435.025
NOAA 18 24 Jul 20:18:45 20:21:55 15° 271° (W) 20:25:05 137.9125
YUBILEINY 24 Jul 20:23:51 20:31:12 28° 64° (ENE) 20:38:29 435.215
AAUSAT CUBESAT 2 24 Jul 20:25:14 20:28:56 32° 69° (ENE) 20:32:39 437.432
CUTE 1.7 + AOD 2 24 Jul 20:26:40 20:30:57 83° 76° (ENE) 20:35:15 437.475
BEESAT 2 24 Jul 20:40:13 20:44:11 88° 124° (SE) 20:48:11 435.950
BEESAT 3 24 Jul 20:40:20 20:44:09 51° 309° (NW) 20:48:01 437.485
M-CUBED/EXP-1 PRIME 24 Jul 20:40:39 20:42:20 13° 53° (NE) 20:44:02 437.505
HO-68 24 Jul 20:44:48 20:51:56 68° 256° (WSW) 20:59:08 435.675
DOVE 4 24 Jul 20:46:34 20:49:10 16° 271° (W) 20:51:52 437.250
UWE-3 24 Jul 20:51:46 20:56:01 40° 70° (ENE) 21:00:22 435.000/436.395/437.385
ZACube-1 24 Jul 20:59:22 21:03:23 32° 68° (ENE) 21:07:29 437.345
FUNcube-1 24 Jul 21:00:10 21:04:08 31° 68° (ENE) 21:08:10 145.935
CUBEBUG 2 24 Jul 21:07:14 21:11:47 82° 76° (ENE) 21:16:31 437.445
AUBIESAT-1 24 Jul 21:08:01 21:10:48 20° 58° (ENE) 21:13:45 437.475
SEEDS 24 Jul 21:11:39 21:15:43 44° 262° (W) 21:19:47 437.485
DELFI C3 24 Jul 21:13:40 21:16:32 19° 66° (ENE) 21:19:24 145.870
PHONESAT 2.4 24 Jul 21:17:58 21:20:53 39° 181° (S) 21:23:48 2401.200-2431.200
CINEMA 3 24 Jul 21:18:13 21:21:55 25° 267° (W) 21:25:48 145.822/145.860
STRAND 1 24 Jul 21:20:02 21:24:59 49° 290° (WNW) 21:29:53 437.568
COMPASS 1 24 Jul 21:29:06 21:33:03 39° 262° (W) 21:36:59 437.405
PCSat 24 Jul 21:45:57 21:51:05 42° 309° (NW) 21:56:14 145.827
Oscar 11 24 Jul 21:46:24 21:50:46 82° 258° (WSW) 21:55:08 145.826/435.025
Cosmos 2491 24 Jul 21:47:37 21:55:29 40° 86° (E) 22:03:22 435.465 / 435.565
CANX-2 24 Jul 21:51:39 21:53:14 12° 271° (W) 21:54:48 2200.000
AO-85 24 Jul 22:00:51 22:03:11 14° 30° (NNE) 22:05:26 145.980
AAUSAT CUBESAT 2 24 Jul 22:01:08 22:04:28 23° 266° (W) 22:07:49 437.432
PRISM 24 Jul 22:02:10 22:06:16 76° 104° (ESE) 22:10:21 437.425
Cosmos 2504 24 Jul 22:02:27 22:09:58 36° 68° (ENE) 22:16:59 435.465 / 435.565
O/OREOS (USA 219) 24 Jul 22:07:19 22:11:47 86° 293° (WNW) 22:16:17 437.305
M-CUBED/EXP-1 PRIME 24 Jul 22:12:33 22:16:13 68° 254° (WSW) 22:20:15 437.505
AIST 2 24 Jul 22:16:26 22:20:21 45° 119° (ESE) 22:24:18 435.215
UNISAT 6 24 Jul 22:18:34 22:19:40 11° 87° (E) 22:20:45 437.425
YUBILEINY 24 Jul 22:20:02 22:28:50 71° 267° (W) 22:37:33 435.215
BEESAT 2 24 Jul 22:20:22 22:22:36 14° 324° (NW) 22:24:49 435.950
UWE-3 24 Jul 22:29:03 22:32:37 22° 268° (W) 22:36:16 435.000/436.395/437.385
ESTCUBE 1 24 Jul 22:31:39 22:34:06 15° 61° (ENE) 22:36:32 437.505/2401.250
ZACube-1 24 Jul 22:35:49 22:39:40 27° 266° (W) 22:43:36 437.345
FUNcube-1 24 Jul 22:36:27 22:40:21 28° 265° (W) 22:44:19 145.935
HO-68 24 Jul 22:38:51 22:40:58 11° 275° (W) 22:43:06 435.675
HUMSAT D 24 Jul 22:38:55 22:43:13 82° 75° (ENE) 22:47:33 437.325/437.525
AUBIESAT-1 24 Jul 22:41:28 22:44:59 38° 257° (WSW) 22:48:47 437.475
ISS 24 Jul 22:42:19 22:45:10 28° 138° (SE) 22:48:01 145.825
DELFI C3 24 Jul 22:47:27 22:51:09 36° 262° (W) 22:54:52 145.870
CUBEBUG 2 24 Jul 22:47:52 22:49:03 11° 274° (W) 22:50:15 437.445
PHONESAT 2.4 24 Jul 22:54:28 22:57:03 24° 197° (SSW) 22:59:37 2401.200-2431.200
ANTELSAT 24 Jul 22:54:51 22:58:45 26° 94° (E) 23:02:35 437.575/2403.000
VELOX 1 24 Jul 23:00:09 23:02:53 16° 62° (ENE) 23:05:38 145.980
CUBEBUG 1 24 Jul 23:08:18 23:11:33 21° 65° (ENE) 23:14:49 437.445
SPROUT 24 Jul 23:17:55 23:19:20 11° 60° (ENE) 23:20:45 437.525
50 SAT 24 Jul 23:22:27 23:25:25 23° 68° (ENE) 23:28:21 437.505
PCSat 24 Jul 23:34:28 23:36:00 11° 332° (NNW) 23:37:33 145.827
TIGRISAT 24 Jul 23:36:53 23:41:34 65° 101° (E) 23:46:06 435.000
PRISM 24 Jul 23:39:43 23:40:59 11° 300° (WNW) 23:42:16 437.425
AO-85 24 Jul 23:40:09 23:44:37 67° 52° (NE) 23:48:42 145.980
AISAT 24 Jul 23:42:55 23:47:05 44° 70° (ENE) 23:51:17 437.250
Cosmos 2491 24 Jul 23:43:49 23:52:09 48° 287° (WNW) 00:00:33 435.465 / 435.565
O/OREOS (USA 219) 24 Jul 23:50:10 23:51:56 12° 313° (NW) 23:53:42 437.305
UNISAT 6 24 Jul 23:52:18 23:57:00 84° 286° (WNW) 00:01:35 437.425
DX 1 24 Jul 23:52:46 23:56:49 40° 70° (ENE) 00:00:52 434.975-435.025
AIST 2 24 Jul 23:55:42 23:59:02 23° 318° (NW) 00:02:24 435.215
Cosmos 2504 24 Jul 23:55:44 00:03:38 51° 271° (W) 00:10:58 435.465 / 435.565
NANOSAT C BR1 25 Jul 00:03:47 00:06:59 20° 93° (E) 00:10:10 145.865
ESTCUBE 1 25 Jul 00:05:53 00:10:22 67° 258° (WSW) 00:14:52 437.505/2401.250
DUCHIFAT 1 25 Jul 00:09:22 00:12:42 22° 94° (E) 00:16:00 145.980
UKube-1 25 Jul 00:11:40 00:15:49 50° 71° (ENE) 00:20:00 .
ISS 25 Jul 00:18:20 00:21:30 46° 337° (NNW) 00:24:39 145.825
YUBILEINY 25 Jul 00:19:49 00:23:54 14° 288° (WNW) 00:28:00 435.215
TISAT 1 25 Jul 00:22:47 00:24:58 14° 61° (ENE) 00:27:08 437.305
QB50P1 25 Jul 00:23:59 00:27:56 34° 97° (E) 00:31:50 145.935-145.965
POPSAT HIP 1 25 Jul 00:30:05 00:34:09 39° 98° (E) 00:38:10 437.405
ANTELSAT 25 Jul 00:31:16 00:35:31 35° 292° (WNW) 00:39:41 437.575/2403.000
VELOX 1 25 Jul 00:34:38 00:38:56 55° 259° (W) 00:43:16 145.980
BUGSAT 1 25 Jul 00:35:48 00:38:52 19° 93° (E) 00:41:55 437.445
AIST 1 25 Jul 00:41:28 00:45:11 27° 73° (ENE) 00:48:55
CUBEBUG 1 25 Jul 00:43:34 00:47:35 39° 262° (W) 00:51:40 437.445
QB50P2 25 Jul 00:50:08 00:54:27 71° 102° (ESE) 00:58:43 145.880/145.840
SPROUT 25 Jul 00:50:22 00:54:38 80° 259° (W) 00:58:57 437.525
POLYITAN 1 25 Jul 00:52:47 00:57:06 73° 102° (ESE) 01:01:23 437.675
50 SAT 25 Jul 00:55:53 00:58:57 25° 264° (W) 01:02:03 437.505
TIGRISAT 25 Jul 01:14:55 01:17:42 16° 299° (WNW) 01:20:27 435.000
AISAT 25 Jul 01:20:43 01:23:47 18° 267° (W) 01:26:52 437.250
ITUPSAT 1 25 Jul 01:22:12 01:24:40 14° 59° (ENE) 01:27:07 437.325
AO-85 25 Jul 01:22:20 01:24:22 13° 253° (WSW) 01:26:21 145.980
DX 1 25 Jul 01:29:58 01:33:10 20° 267° (W) 01:36:23 434.975-435.025
UNISAT 6 25 Jul 01:31:42 01:32:54 11° 303° (WNW) 01:34:07 437.425
NANOSAT C BR1 25 Jul 01:38:52 01:42:51 39° 290° (WNW) 01:46:49 145.865
DUCHIFAT 1 25 Jul 01:44:34 01:48:29 36° 291° (WNW) 01:52:23 145.980
UKube-1 25 Jul 01:49:31 01:52:10 16° 268° (W) 01:54:48 .
JAS-2 25 Jul 01:51:32 01:56:47 73° 103° (ESE) 02:02:23 435.910
ISS 25 Jul 01:55:49 01:58:27 22° 356° (N) 02:01:07 145.825
TISAT 1 25 Jul 01:55:58 02:00:06 62° 259° (WSW) 02:04:19 437.305
QB50P1 25 Jul 02:00:06 02:03:31 23° 294° (WNW) 02:06:56 145.935-145.965
POPSAT HIP 1 25 Jul 02:06:27 02:09:40 21° 295° (WNW) 02:12:53 437.405
BUGSAT 1 25 Jul 02:10:24 02:14:24 41° 290° (WNW) 02:18:24 437.445
Oscar 19 25 Jul 02:12:47 02:17:29 34° 97° (E) 02:22:10 437.125/150
SWISSCUBE 25 Jul 02:14:18 02:18:52 45° 70° (ENE) 02:23:26 437.505
AIST 1 25 Jul 02:19:03 02:22:43 27° 271° (W) 02:26:23
GONETS M04 25 Jul 02:27:11 02:35:16 38° 70° (ENE) 02:43:19
QB50P2 25 Jul 02:27:45 02:29:40 13° 300° (WNW) 02:31:36 145.880/145.840
POLYITAN 1 25 Jul 02:30:26 02:32:19 13° 300° (WNW) 02:34:12 437.675
BEESAT 25 Jul 02:35:47 02:40:31 66° 73° (ENE) 02:45:18 436.000
ITUPSAT 1 25 Jul 02:57:02 03:01:51 80° 257° (WSW) 03:06:42 437.325
Cosmos 2499 25 Jul 03:02:51 03:10:24 42° 71° (ENE) 03:17:22 435.465 / 435.565
PCSat 25 Jul 03:07:37 03:08:46 11° 27° (NNE) 03:09:56 145.827
Gurwin Techsat 1B 25 Jul 03:11:13 03:16:27 53° 100° (E) 03:21:38 435.225
BEESAT 3 25 Jul 03:18:55 03:21:56 20° 41° (NE) 03:24:55 437.485
BEESAT 2 25 Jul 03:20:10 03:22:20 14° 36° (NE) 03:24:29 435.950
KKS-1 25 Jul 03:25:55 03:29:37 26° 66° (ENE) 03:33:20 437.445
ISS 25 Jul 03:32:37 03:35:34 30° 16° (NNE) 03:38:30 145.825
JAS-2 25 Jul 03:38:15 03:41:23 16° 301° (WNW) 03:44:37 435.910
MOZHAYETS 4 25 Jul 03:40:33 03:44:49 38° 69° (ENE) 03:49:06
ITAMSAT 1 25 Jul 03:41:17 03:46:00 34° 97° (E) 03:50:40 435.822/435.867
Oscar 19 25 Jul 03:52:11 03:56:44 32° 294° (WNW) 04:01:18 437.125/150
SWISSCUBE 25 Jul 03:53:14 03:56:52 21° 267° (W) 04:00:31 437.505
AO-7 25 Jul 04:06:31 04:13:39 30° 95° (E) 04:20:43 29.400- 29.500
STARS 25 Jul 04:11:21 04:15:24 38° 70° (ENE) 04:19:31 437.465
BEESAT 25 Jul 04:16:08 04:18:46 15° 270° (W) 04:21:25 436.000
GONETS M04 25 Jul 04:23:56 04:32:20 52° 271° (W) 04:40:45
DANDE 25 Jul 04:43:47 04:48:59 33° 96° (E) 04:53:04 436.750
CUSAT 1 25 Jul 04:46:27 04:50:52 84° 100° (E) 04:54:17 437.405
PCSat 25 Jul 04:48:40 04:53:46 39° 50° (NE) 04:58:49 145.827
Gurwin Techsat 1B 25 Jul 04:51:57 04:56:02 23° 298° (WNW) 05:00:06 435.225
CUBESAT XI-V 25 Jul 04:53:19 04:57:12 27° 67° (ENE) 05:01:06 437.345
BEESAT 3 25 Jul 04:56:01 04:59:53 51° 240° (WSW) 05:03:43 437.485
Cosmos 2499 25 Jul 04:56:12 05:03:28 41° 274° (W) 05:10:15 435.465 / 435.565
BEESAT 2 25 Jul 04:56:45 05:00:47 88° 60° (ENE) 05:04:47 435.950
AIST 2 25 Jul 05:00:00 05:00:41 10° 30° (NNE) 05:01:23 435.215
KKS-1 25 Jul 05:02:05 05:06:04 32° 263° (W) 05:10:05 437.445
ISS 25 Jul 05:08:57 05:12:11 63° 215° (SW) 05:15:24 145.825
MOZHAYETS 4 25 Jul 05:18:20 05:22:05 24° 266° (W) 05:25:51
ITAMSAT 1 25 Jul 05:20:48 05:25:25 33° 294° (WNW) 05:30:01 435.822/435.867
RS-15 25 Jul 05:34:05 05:36:36 11° 90° (E) 05:39:09 29.354- 29.394
STARS 25 Jul 05:48:31 05:51:54 21° 266° (W) 05:55:18 437.465
AO-7 25 Jul 05:58:41 06:06:57 66° 294° (WNW) 06:15:08 29.400- 29.500
HORYU 2 25 Jul 06:15:00 06:19:29 65° 102° (ESE) 06:23:55 437.375
Cubesat XI-IV 25 Jul 06:18:15 06:20:33 13° 88° (E) 06:22:50 437.490
DANDE 25 Jul 06:26:50 06:31:43 29° 285° (WNW) 06:35:35 436.750
CUBESAT XI-V 25 Jul 06:30:19 06:34:28 33° 264° (W) 06:38:40 437.345
PCSat 25 Jul 06:32:13 06:37:05 35° 249° (WSW) 06:41:56 145.827
AIST 2 25 Jul 06:36:05 06:40:10 50° 51° (NE) 06:44:14 435.215
O/OREOS (USA 219) 25 Jul 06:36:45 06:40:40 28° 57° (ENE) 06:44:35 437.305
CUTE-I 25 Jul 06:41:21 06:45:24 21° 92° (E) 06:49:24 437.470
NOAA 18 25 Jul 06:56:00 07:00:46 29° 95° (E) 07:05:29 137.9125
GOMX 1 25 Jul 06:58:04 07:02:13 26° 94° (E) 07:06:33 467.674
STRAND 1 25 Jul 06:58:45 07:03:28 37° 67° (ENE) 07:08:10 437.568
DOVE 4 25 Jul 07:04:43 07:07:36 15° 89° (E) 07:10:31 437.250
NOAA 15 25 Jul 07:09:00 07:14:07 49° 100° (E) 07:19:12 137.62
BRITE-PL 25 Jul 07:20:46 07:25:30 84° 102° (ESE) 07:30:36 437.365/2234.400
RS-15 25 Jul 07:34:58 07:45:58 57° 113° (ESE) 07:57:35 29.354- 29.394
LilacSat-2 25 Jul 07:35:34 07:39:27 73° 101° (E) 07:43:18 437.200
HORYU 2 25 Jul 07:52:59 07:55:32 15° 299° (WNW) 07:58:03 437.375
AO-7 25 Jul 07:53:12 07:58:11 18° 316° (NW) 08:03:09 29.400- 29.500
Cosmos 2491 25 Jul 07:55:44 08:02:11 22° 61° (ENE) 08:08:36 435.465 / 435.565
Cubesat XI-IV 25 Jul 07:55:56 08:01:20 87° 285° (WNW) 08:06:40 437.490
CANX-2 25 Jul 07:59:13 07:59:38 10° 88° (E) 08:00:03 2200.000
HO-68 25 Jul 08:11:38 08:17:02 22° 91° (E) 08:22:23 435.675
CUTE 1.7 + AOD 2 25 Jul 08:11:47 08:13:40 13° 89° (E) 08:15:33 437.475
AIST 2 25 Jul 08:15:26 08:18:17 18° 248° (WSW) 08:21:08 435.215
O/OREOS (USA 219) 25 Jul 08:16:01 08:20:05 33° 255° (WSW) 08:24:10 437.305
CUTE-I 25 Jul 08:20:34 08:25:46 54° 290° (WNW) 08:30:56 437.470
SO-50 25 Jul 08:22:21 08:25:34 18° 110° (ESE) 08:28:48 436.795
GOMX 1 25 Jul 08:35:45 08:40:23 42° 289° (WNW) 08:45:17 467.674
NOAA 18 25 Jul 08:36:19 08:41:33 43° 293° (WNW) 08:46:44 137.9125
STRAND 1 25 Jul 08:38:13 08:42:41 29° 265° (W) 08:47:10 437.568
DOVE 4 25 Jul 08:40:40 08:45:44 74° 285° (WNW) 08:50:59 437.250
NOAA 15 25 Jul 08:49:25 08:53:35 25° 297° (WNW) 08:57:46 137.62
PRISM 25 Jul 08:52:51 08:56:53 66° 74° (ENE) 09:00:56 437.425
SEEDS 25 Jul 08:54:06 08:57:37 26° 95° (E) 09:01:06 437.485
CUBEBUG 2 25 Jul 08:57:40 09:00:45 17° 90° (E) 09:03:47 437.445
BRITE-PL 25 Jul 09:01:18 09:03:27 13° 299° (WNW) 09:05:40 437.365/2234.400
CINEMA 3 25 Jul 09:09:50 09:14:52 70° 102° (ESE) 09:19:52 145.822/145.860
COMPASS 1 25 Jul 09:10:21 09:13:54 27° 95° (E) 09:17:24 437.405
LilacSat-2 25 Jul 09:12:27 09:13:10 10° 299° (WNW) 09:13:53 437.200
UNISAT 6 25 Jul 09:18:31 09:20:43 13° 59° (ENE) 09:22:55 437.425
YUBILEINY 25 Jul 09:27:50 09:34:58 29° 81° (E) 09:42:09 435.215
CANX-2 25 Jul 09:31:48 09:36:01 75° 285° (WNW) 09:40:12 2200.000
Oscar 11 25 Jul 09:33:08 09:35:52 16° 91° (E) 09:38:35 145.826/435.025
Cubesat XI-IV 25 Jul 09:37:57 09:40:36 14° 304° (NW) 09:43:15 437.490
AAUSAT CUBESAT 2 25 Jul 09:40:45 09:44:44 46° 99° (E) 09:48:41 437.432
CUTE 1.7 + AOD 2 25 Jul 09:45:45 09:49:55 60° 286° (WNW) 09:54:03 437.475
RS-15 25 Jul 09:47:21 09:58:40 53° 319° (NW) 10:10:36 29.354- 29.394
Cosmos 2491 25 Jul 09:51:28 10:00:16 88° 265° (W) 10:09:03 435.465 / 435.565
ANTELSAT 25 Jul 09:54:58 09:58:55 28° 66° (ENE) 10:02:55 437.575/2403.000
HO-68 25 Jul 09:58:13 10:05:25 75° 290° (WNW) 10:12:34 435.675
SO-50 25 Jul 10:00:44 10:05:35 66° 307° (NW) 10:10:25 436.795
UWE-3 25 Jul 10:15:50 10:20:29 70° 101° (E) 10:25:00 435.000/436.395/437.385
AUBIESAT-1 25 Jul 10:19:29 10:21:44 13° 94° (E) 10:23:57 437.475
DOVE 4 25 Jul 10:21:07 10:22:37 11° 302° (WNW) 10:24:07 437.250
ZACube-1 25 Jul 10:21:48 10:26:16 53° 99° (E) 10:30:36 437.345
FUNcube-1 25 Jul 10:22:13 10:26:37 50° 99° (E) 10:30:54 145.935
HUMSAT D 25 Jul 10:23:00 10:24:28 12° 89° (E) 10:25:55 437.325/437.525
DELFI C3 25 Jul 10:23:33 10:26:44 23° 94° (E) 10:29:54 145.870
SEEDS 25 Jul 10:29:42 10:33:18 29° 292° (WNW) 10:36:52 437.485
PRISM 25 Jul 10:31:32 10:32:38 11° 270° (W) 10:33:44 437.425
CUBEBUG 2 25 Jul 10:33:04 10:37:44 56° 287° (WNW) 10:42:16 437.445
TIGRISAT 25 Jul 10:36:33 10:41:08 68° 74° (ENE) 10:45:49 435.000
Cosmos 2504 25 Jul 10:42:20 10:49:38 30° 82° (E) 10:56:56 435.465 / 435.565
COMPASS 1 25 Jul 10:45:54 10:49:23 27° 292° (WNW) 10:52:52 437.405
CINEMA 3 25 Jul 10:48:16 10:51:26 17° 299° (WNW) 10:54:34 145.822/145.860
UNISAT 6 25 Jul 10:52:08 10:56:44 80° 256° (WSW) 11:01:28 437.425
NANOSAT C BR1 25 Jul 10:57:44 11:00:46 19° 64° (ENE) 11:03:49 145.865
DUCHIFAT 1 25 Jul 11:03:02 11:06:10 21° 65° (ENE) 11:09:19 145.980
Oscar 11 25 Jul 11:08:06 11:12:17 49° 288° (WNW) 11:16:25 145.826/435.025
AAUSAT CUBESAT 2 25 Jul 11:17:13 11:19:52 17° 296° (WNW) 11:22:29 437.432
QB50P1 25 Jul 11:17:54 11:21:40 32° 69° (ENE) 11:25:29 145.935-145.965
YUBILEINY 25 Jul 11:22:21 11:31:04 66° 282° (WNW) 11:39:53 435.215
M-CUBED/EXP-1 PRIME 25 Jul 11:23:49 11:28:29 70° 107° (ESE) 11:33:11 437.505
POPSAT HIP 1 25 Jul 11:24:00 11:27:52 36° 70° (ENE) 11:31:48 437.405
BUGSAT 1 25 Jul 11:27:38 11:30:16 17° 63° (ENE) 11:32:56 437.445
ANTELSAT 25 Jul 11:31:21 11:35:30 33° 264° (W) 11:39:46 437.575/2403.000
QB50P2 25 Jul 11:43:58 11:48:10 64° 74° (ENE) 11:52:25 145.880/145.840
SO-50 25 Jul 11:44:09 11:46:58 15° 328° (NNW) 11:49:47 436.795
POLYITAN 1 25 Jul 11:46:35 11:50:48 66° 75° (ENE) 11:55:04 437.675
HO-68 25 Jul 11:47:41 11:51:58 17° 310° (NW) 11:56:15 435.675
Cosmos 2491 25 Jul 11:50:15 11:55:48 19° 284° (WNW) 12:01:22 435.465 / 435.565
AUBIESAT-1 25 Jul 11:51:59 11:56:37 75° 290° (WNW) 12:01:14 437.475
UWE-3 25 Jul 11:53:48 11:56:21 15° 299° (WNW) 11:58:51 435.000/436.395/437.385
HUMSAT D 25 Jul 11:56:21 12:00:33 66° 286° (WNW) 12:04:40 437.325/437.525
ESTCUBE 1 25 Jul 11:57:17 12:00:48 22° 94° (E) 12:04:19 437.505/2401.250
DELFI C3 25 Jul 11:58:11 12:01:34 28° 292° (WNW) 12:04:58 145.870
ZACube-1 25 Jul 11:59:05 12:02:06 18° 297° (WNW) 12:05:06 437.345
FUNcube-1 25 Jul 11:59:22 12:02:28 19° 297° (WNW) 12:05:32 145.935
RS-15 25 Jul 12:04:47 12:14:49 29° 351° (N) 12:25:08 29.354- 29.394
JAS-2 25 Jul 12:05:43 12:11:13 38° 68° (ENE) 12:16:14 435.910
TIGRISAT 25 Jul 12:16:00 12:18:19 14° 271° (W) 12:20:39 435.000
50 SAT 25 Jul 12:22:45 12:25:36 21° 95° (E) 12:28:24 437.505
VELOX 1 25 Jul 12:23:23 12:27:01 24° 94° (E) 12:30:37 145.980
CUBEBUG 1 25 Jul 12:30:14 12:34:12 32° 97° (E) 12:38:10 437.445
NANOSAT C BR1 25 Jul 12:32:11 12:36:12 42° 262° (W) 12:40:16 145.865
Cosmos 2504 25 Jul 12:33:34 12:42:22 67° 282° (WNW) 12:51:12 435.465 / 435.565
SPROUT 25 Jul 12:35:52 12:38:29 16° 91° (E) 12:41:07 437.525
DUCHIFAT 1 25 Jul 12:37:39 12:41:36 39° 262° (W) 12:45:37 145.980
QB50P1 25 Jul 12:54:01 12:57:29 24° 266° (W) 13:00:59 145.935-145.965
Gurwin Techsat 1B 25 Jul 12:57:00 12:59:59 15° 58° (ENE) 13:02:58 435.225
M-CUBED/EXP-1 PRIME 25 Jul 12:59:31 13:02:29 17° 304° (WNW) 13:05:28 437.505
POPSAT HIP 1 25 Jul 13:00:30 13:03:45 21° 266° (W) 13:07:04 437.405
BUGSAT 1 25 Jul 13:01:21 13:05:16 47° 261° (W) 13:09:17 437.445
AISAT 25 Jul 13:07:24 13:11:52 73° 103° (ESE) 13:16:19 437.250
AIST 1 25 Jul 13:13:58 13:16:19 15° 85° (E) 13:18:40
DX 1 25 Jul 13:14:57 13:19:17 60° 102° (ESE) 13:23:36 434.975-435.025
AO-7 25 Jul 13:20:37 13:24:04 13° 39° (NE) 13:27:31 29.400- 29.500
QB50P2 25 Jul 13:22:39 13:24:25 12° 271° (W) 13:26:11 145.880/145.840
YUBILEINY 25 Jul 13:25:18 13:29:54 15° 306° (NW) 13:34:32 435.215
POLYITAN 1 25 Jul 13:25:22 13:27:04 12° 271° (W) 13:28:45 437.675
AUBIESAT-1 25 Jul 13:28:53 13:30:17 11° 308° (NW) 13:31:41 437.475
Oscar 19 25 Jul 13:31:05 13:36:06 59° 72° (ENE) 13:41:09 437.125/150
UKube-1 25 Jul 13:32:47 13:37:08 75° 104° (ESE) 13:41:27 .
ESTCUBE 1 25 Jul 13:33:35 13:37:44 38° 291° (WNW) 13:41:52 437.505/2401.250
TISAT 1 25 Jul 13:39:04 13:41:59 18° 92° (E) 13:44:54 437.305
JAS-2 25 Jul 13:50:53 13:56:21 33° 263° (W) 14:01:21 435.910
50 SAT 25 Jul 13:56:12 13:59:12 25° 291° (WNW) 14:02:12 437.505
AO-85 25 Jul 13:56:27 14:00:04 18° 110° (ESE) 14:03:35 145.980
VELOX 1 25 Jul 13:59:30 14:03:32 35° 291° (WNW) 14:07:35 145.980
CUBEBUG 1 25 Jul 14:06:44 14:10:22 26° 294° (WNW) 14:14:01 437.445
SPROUT 25 Jul 14:10:32 14:14:44 51° 288° (WNW) 14:18:55 437.525
RS-15 25 Jul 14:21:06 14:32:07 36° 26° (NNE) 14:43:11 29.354- 29.394
Cosmos 2504 25 Jul 14:32:40 14:37:38 16° 305° (NW) 14:42:36 435.465 / 435.565
Gurwin Techsat 1B 25 Jul 14:33:54 14:39:13 84° 255° (WSW) 14:44:35 435.225
BEESAT 25 Jul 14:35:43 14:38:22 15° 90° (E) 14:41:01 436.000
AISAT 25 Jul 14:45:36 14:47:46 13° 300° (WNW) 14:49:55 437.250
AIST 1 25 Jul 14:49:20 14:53:28 49° 282° (WNW) 14:57:37
DX 1 25 Jul 14:52:28 14:55:00 15° 299° (WNW) 14:57:32 434.975-435.025
ITUPSAT 1 25 Jul 14:56:32 15:00:20 23° 94° (E) 15:04:05 437.325
